Year,Month,Day,Hour,Minute,Value (Times are PST for temperature in C)
2021,01,14,16,42,7.80
2021,01,14,16,43,7.80
2021,01,14,16,44,7.80
2021,01,14,16,45,7.80
2021,01,14,16,46,7.80
2021,01,14,16,47,7.80
2021,01,14,16,48,7.80
2021,01,14,16,49,7.80
2021,01,14,16,50,7.80
2021,01,14,16,51,7.80
2021,01,14,16,52,7.80
2021,01,14,16,53,7.80
2021,01,14,16,54,7.80
2021,01,14,16,55,7.80
2021,01,14,16,56,7.80
2021,01,14,16,57,7.80
2021,01,14,16,58,7.80
2021,01,14,16,59,7.80
2021,01,14,17,00,7.80
2021,01,14,17,01,7.80
2021,01,14,17,02,7.80
2021,01,14,17,03,7.80
2021,01,14,17,04,7.80
2021,01,14,17,05,7.80
2021,01,14,17,06,7.80
2021,01,14,17,07,7.90
2021,01,14,17,08,7.90
2021,01,14,17,09,8.00
2021,01,14,17,10,8.10
2021,01,14,17,11,8.10
2021,01,14,17,12,8.00
2021,01,14,17,13,8.00
2021,01,14,17,14,8.00
2021,01,14,17,15,8.00
2021,01,14,17,16,7.90
2021,01,14,17,17,7.90
2021,01,14,17,18,7.90
2021,01,14,17,19,7.80
2021,01,14,17,20,7.80
2021,01,14,17,21,7.80
2021,01,14,17,22,7.80
2021,01,14,17,23,7.80
2021,01,14,17,24,7.70
2021,01,14,17,25,7.70
2021,01,14,17,26,7.70
2021,01,14,17,27,7.70
2021,01,14,17,28,7.70
2021,01,14,17,29,7.70
2021,01,14,17,30,7.60
2021,01,14,17,31,7.60
2021,01,14,17,32,7.60
2021,01,14,17,33,7.60
2021,01,14,17,34,7.50
2021,01,14,17,35,7.50
2021,01,14,17,36,7.50
2021,01,14,17,37,7.50
2021,01,14,17,38,7.50
2021,01,14,17,39,7.50
2021,01,14,17,40,7.50
2021,01,14,17,41,7.50
2021,01,14,17,42,7.50
2021,01,14,17,43,7.50
2021,01,14,17,44,7.50
2021,01,14,17,45,7.50
2021,01,14,17,46,7.50
2021,01,14,17,47,7.50
2021,01,14,17,48,7.50
2021,01,14,17,49,7.50
2021,01,14,17,50,7.50
2021,01,14,17,51,7.50
2021,01,14,17,52,7.50
2021,01,14,17,53,7.50
2021,01,14,17,54,7.40
2021,01,14,17,55,7.40
2021,01,14,17,56,7.40
2021,01,14,17,57,7.40
2021,01,14,17,58,7.40
2021,01,14,17,59,7.40
2021,01,14,18,00,7.40
2021,01,14,18,01,7.40
2021,01,14,18,02,7.40
2021,01,14,18,03,7.40
2021,01,14,18,04,7.40
2021,01,14,18,05,7.40
2021,01,14,18,06,7.40
2021,01,14,18,07,7.30
2021,01,14,18,08,7.30
2021,01,14,18,09,7.30
2021,01,14,18,10,7.40
2021,01,14,18,11,7.40
2021,01,14,18,12,7.40
2021,01,14,18,13,7.40
2021,01,14,18,14,7.40
2021,01,14,18,15,7.40
2021,01,14,18,16,7.40
2021,01,14,18,17,7.40
2021,01,14,18,18,7.40
2021,01,14,18,19,7.40
2021,01,14,18,20,7.40
2021,01,14,18,21,7.40
2021,01,14,18,22,7.40
2021,01,14,18,23,7.40
2021,01,14,18,24,7.40
2021,01,14,18,25,7.40
2021,01,14,18,26,7.40
2021,01,14,18,27,7.40
2021,01,14,18,28,7.40
2021,01,14,18,29,7.40
2021,01,14,18,30,7.40
2021,01,14,18,31,7.50
2021,01,14,18,32,7.50
2021,01,14,18,33,7.50
2021,01,14,18,34,7.50
2021,01,14,18,35,7.50
2021,01,14,18,36,7.40
2021,01,14,18,37,7.40
2021,01,14,18,38,7.40
2021,01,14,18,39,7.40
2021,01,14,18,40,7.30
2021,01,14,18,41,7.30
2021,01,14,18,42,7.30
2021,01,14,18,43,7.30
2021,01,14,18,44,7.30
2021,01,14,18,45,7.30
2021,01,14,18,46,7.30
2021,01,14,18,47,7.30
2021,01,14,18,48,7.30
2021,01,14,18,49,7.30
2021,01,14,18,50,7.30
2021,01,14,18,51,7.30
2021,01,14,18,52,7.30
2021,01,14,18,53,7.30
2021,01,14,18,54,7.30
2021,01,14,18,55,7.30
2021,01,14,18,56,7.30
2021,01,14,18,57,7.30
2021,01,14,18,58,7.30
2021,01,14,18,59,7.30
2021,01,14,19,00,7.30
2021,01,14,19,01,7.20
2021,01,14,19,02,7.20
2021,01,14,19,03,7.20
2021,01,14,19,04,7.10
2021,01,14,19,05,7.10
2021,01,14,19,06,7.00
2021,01,14,19,07,7.00
2021,01,14,19,08,6.90
2021,01,14,19,09,6.90
2021,01,14,19,10,6.90
2021,01,14,19,11,6.90
2021,01,14,19,12,6.90
2021,01,14,19,13,6.90
2021,01,14,19,14,6.80
2021,01,14,19,15,6.80
2021,01,14,19,16,6.80
2021,01,14,19,17,6.80
2021,01,14,19,18,6.80
2021,01,14,19,19,6.80
2021,01,14,19,20,6.80
2021,01,14,19,21,6.70
2021,01,14,19,22,6.70
2021,01,14,19,23,6.70
2021,01,14,19,24,6.70
2021,01,14,19,25,6.70
2021,01,14,19,26,6.70
2021,01,14,19,27,6.70
2021,01,14,19,28,6.70
2021,01,14,19,29,6.70
2021,01,14,19,30,6.70
2021,01,14,19,31,6.60
2021,01,14,19,32,6.60
2021,01,14,19,33,6.60
2021,01,14,19,34,6.60
2021,01,14,19,35,6.50
2021,01,14,19,36,6.50
2021,01,14,19,37,6.50
2021,01,14,19,38,6.50
2021,01,14,19,39,6.40
2021,01,14,19,40,6.40
2021,01,14,19,41,6.40
2021,01,14,19,42,6.40
2021,01,14,19,43,6.40
2021,01,14,19,44,6.40
2021,01,14,19,45,6.30
2021,01,14,19,46,6.30
2021,01,14,19,47,6.30
2021,01,14,19,48,6.30
2021,01,14,19,49,6.30
2021,01,14,19,50,6.30
2021,01,14,19,51,6.30
2021,01,14,19,52,6.30
2021,01,14,19,53,6.30
2021,01,14,19,54,6.30
2021,01,14,19,55,6.30
2021,01,14,19,56,6.30
2021,01,14,19,57,6.30
2021,01,14,19,58,6.30
2021,01,14,19,59,6.30
2021,01,14,20,00,6.30
2021,01,14,20,01,6.20
2021,01,14,20,02,6.20
2021,01,14,20,03,6.20
2021,01,14,20,04,6.20
2021,01,14,20,05,6.20
2021,01,14,20,06,6.20
2021,01,14,20,07,6.20
2021,01,14,20,08,6.20
2021,01,14,20,09,6.20
2021,01,14,20,10,6.20
2021,01,14,20,11,6.20
2021,01,14,20,12,6.20
2021,01,14,20,13,6.20
2021,01,14,20,14,6.20
2021,01,14,20,15,6.10
2021,01,14,20,16,6.10
2021,01,14,20,17,6.10
2021,01,14,20,18,6.10
2021,01,14,20,19,6.10
2021,01,14,20,20,6.10
2021,01,14,20,21,6.10
2021,01,14,20,22,6.10
2021,01,14,20,23,6.10
2021,01,14,20,24,6.10
2021,01,14,20,25,6.10
2021,01,14,20,26,6.10
2021,01,14,20,27,6.00
2021,01,14,20,28,6.00
2021,01,14,20,29,6.00
2021,01,14,20,30,5.90
2021,01,14,20,31,5.90
2021,01,14,20,32,5.90
2021,01,14,20,33,5.90
2021,01,14,20,34,5.80
2021,01,14,20,35,5.80
2021,01,14,20,36,5.80
2021,01,14,20,37,5.80
2021,01,14,20,38,5.80
2021,01,14,20,39,5.80
2021,01,14,20,40,5.80
2021,01,14,20,41,5.80
2021,01,14,20,42,5.80
2021,01,14,20,43,5.80
2021,01,14,20,44,5.80
2021,01,14,20,45,5.70
2021,01,14,20,46,5.70
2021,01,14,20,47,5.70
2021,01,14,20,48,5.70
2021,01,14,20,49,5.70
2021,01,14,20,50,5.70
2021,01,14,20,51,5.60
2021,01,14,20,52,5.70
2021,01,14,20,53,5.60
2021,01,14,20,54,5.60
2021,01,14,20,55,5.60
2021,01,14,20,56,5.60
2021,01,14,20,57,5.60
2021,01,14,20,58,5.60
2021,01,14,20,59,5.60
2021,01,14,21,00,5.60
2021,01,14,21,01,5.60
2021,01,14,21,02,5.60
2021,01,14,21,03,5.60
2021,01,14,21,04,5.60
2021,01,14,21,05,5.60
2021,01,14,21,06,5.60
2021,01,14,21,07,5.60
2021,01,14,21,08,5.60
2021,01,14,21,09,5.60
2021,01,14,21,10,5.60
2021,01,14,21,11,5.60
2021,01,14,21,12,5.60
2021,01,14,21,13,5.60
2021,01,14,21,14,5.60
2021,01,14,21,15,5.60
2021,01,14,21,16,5.60
2021,01,14,21,17,5.60
2021,01,14,21,18,5.60
2021,01,14,21,19,5.60
2021,01,14,21,20,5.60
2021,01,14,21,21,5.60
2021,01,14,21,22,5.60
2021,01,14,21,23,5.60
2021,01,14,21,24,5.60
2021,01,14,21,25,5.60
2021,01,14,21,26,5.60
2021,01,14,21,27,5.60
2021,01,14,21,28,5.60
2021,01,14,21,29,5.60
2021,01,14,21,30,5.60
2021,01,14,21,31,5.60
2021,01,14,21,32,5.60
2021,01,14,21,33,5.60
2021,01,14,21,34,5.60
2021,01,14,21,35,5.60
2021,01,14,21,36,5.60
2021,01,14,21,37,5.60
2021,01,14,21,38,5.60
2021,01,14,21,39,5.60
2021,01,14,21,40,5.60
2021,01,14,21,41,5.60
2021,01,14,21,42,5.60
2021,01,14,21,43,5.60
2021,01,14,21,44,5.60
2021,01,14,21,45,5.60
2021,01,14,21,46,5.60
2021,01,14,21,47,5.60
2021,01,14,21,48,5.60
2021,01,14,21,49,5.60
2021,01,14,21,50,5.60
2021,01,14,21,51,5.60
2021,01,14,21,52,5.60
2021,01,14,21,53,5.60
2021,01,14,21,54,5.60
2021,01,14,21,55,5.60
2021,01,14,21,56,5.60
2021,01,14,21,57,5.60
2021,01,14,21,58,5.60
2021,01,14,21,59,5.60
2021,01,14,22,00,5.60
2021,01,14,22,01,5.60
2021,01,14,22,02,5.60
2021,01,14,22,03,5.60
2021,01,14,22,04,5.60
2021,01,14,22,05,5.60
2021,01,14,22,06,5.60
2021,01,14,22,07,5.60
2021,01,14,22,08,5.60
2021,01,14,22,09,5.60
2021,01,14,22,10,5.60
2021,01,14,22,11,5.60
2021,01,14,22,12,5.60
2021,01,14,22,13,5.60
2021,01,14,22,14,5.70
2021,01,14,22,15,5.70
2021,01,14,22,16,5.70
2021,01,14,22,17,5.70
2021,01,14,22,18,5.70
2021,01,14,22,19,5.70
2021,01,14,22,20,5.70
2021,01,14,22,21,5.70
2021,01,14,22,22,5.70
2021,01,14,22,23,5.70
2021,01,14,22,24,5.70
2021,01,14,22,25,5.70
2021,01,14,22,26,5.70
2021,01,14,22,27,5.70
2021,01,14,22,28,5.70
2021,01,14,22,29,5.70
2021,01,14,22,30,5.70
2021,01,14,22,31,5.70
2021,01,14,22,32,5.70
2021,01,14,22,33,5.70
2021,01,14,22,34,5.70
2021,01,14,22,35,5.70
2021,01,14,22,36,5.70
2021,01,14,22,37,5.70
2021,01,14,22,38,5.70
2021,01,14,22,39,5.70
2021,01,14,22,40,5.70
2021,01,14,22,41,5.70
2021,01,14,22,42,5.70
2021,01,14,22,43,5.70
2021,01,14,22,44,5.70
2021,01,14,22,45,5.80
2021,01,14,22,46,5.80
2021,01,14,22,47,5.80
2021,01,14,22,48,5.80
2021,01,14,22,49,5.80
2021,01,14,22,50,5.80
2021,01,14,22,51,5.80
2021,01,14,22,52,5.80
2021,01,14,22,53,5.80
2021,01,14,22,54,5.80
2021,01,14,22,55,5.80
2021,01,14,22,56,5.80
2021,01,14,22,57,5.80
2021,01,14,22,58,5.80
2021,01,14,22,59,5.80
2021,01,14,23,00,5.80
2021,01,14,23,01,5.80
2021,01,14,23,02,5.80
2021,01,14,23,03,5.80
2021,01,14,23,04,5.90
2021,01,14,23,05,5.90
2021,01,14,23,06,5.90
2021,01,14,23,07,5.90
2021,01,14,23,08,5.90
2021,01,14,23,09,5.90
2021,01,14,23,10,5.90
2021,01,14,23,11,5.90
2021,01,14,23,12,5.90
2021,01,14,23,13,5.90
2021,01,14,23,14,5.90
2021,01,14,23,15,6.00
2021,01,14,23,16,6.00
2021,01,14,23,17,6.00
2021,01,14,23,18,6.00
2021,01,14,23,19,6.00
2021,01,14,23,20,6.00
2021,01,14,23,21,6.00
2021,01,14,23,22,6.00
2021,01,14,23,23,6.10
2021,01,14,23,24,6.10
2021,01,14,23,25,6.10
2021,01,14,23,26,6.20
2021,01,14,23,27,6.20
2021,01,14,23,28,6.20
2021,01,14,23,29,6.20
2021,01,14,23,30,6.20
2021,01,14,23,31,6.20
2021,01,14,23,32,6.20
2021,01,14,23,33,6.30
2021,01,14,23,34,6.30
2021,01,14,23,35,6.30
2021,01,14,23,36,6.30
2021,01,14,23,37,6.30
2021,01,14,23,38,6.30
2021,01,14,23,39,6.30
2021,01,14,23,40,6.30
2021,01,14,23,41,6.30
2021,01,14,23,42,6.30
2021,01,14,23,43,6.40
2021,01,14,23,44,6.40
2021,01,14,23,45,6.40
2021,01,14,23,46,6.40
2021,01,14,23,47,6.40
2021,01,14,23,48,6.40
2021,01,14,23,49,6.40
2021,01,14,23,50,6.40
2021,01,14,23,51,6.40
2021,01,14,23,52,6.40
2021,01,14,23,53,6.40
2021,01,14,23,54,6.40
2021,01,14,23,55,6.40
2021,01,14,23,56,6.40
2021,01,14,23,57,6.40
2021,01,14,23,58,6.40
2021,01,14,23,59,6.40
